Location: Caltech
(34.1382°N, 118.1253°W)
Time: 00:06:15
(UTC-07:00)

SL-08 RB Rocket - Visible Passes

Search period start: 26 June 2017 00:00
Search period end: 06 July 2017 00:00
Orbit: 648 x 684 km, 98.0° (Epoch: 25 June)

Date Brightness Start Highest point End Pass type
(mag) Time Alt. Az. Time Alt. Az. Time Alt. Az.
26 Jun 5.8 21:00:21 10° E 21:02:30 13° ENE 21:04:38 10° NE visible
26 Jun 4.3 22:38:09 44° SW 22:39:02 50° W 22:43:30 10° NNW visible
27 Jun 4.8 21:32:00 22° ESE 21:33:48 28° ENE 21:37:45 10° NNE visible
27 Jun 5.5 23:10:08 21° WSW 23:10:47 22° W 23:14:22 10° NW visible
28 Jun 3.7 22:03:59 44° SE 22:05:17 65° ENE 22:09:51 10° N visible
29 Jun 5.8 20:58:25 10° E 21:00:23 13° ENE 21:02:21 10° NE visible
29 Jun 4.2 22:35:58 45° SW 22:36:53 53° W 22:41:24 10° NNW visible
30 Jun 4.9 21:29:50 21° ESE 21:31:41 27° ENE 21:35:33 10° NNE visible
30 Jun 5.4 23:07:57 23° WSW 23:08:38 23° W 23:12:19 10° NW visible
01 Jul 3.8 22:01:49 42° SE 22:03:08 62° ENE 22:07:42 10° N visible
02 Jul 5.8 20:56:30 10° E 20:58:15 12° ENE 21:00:02 10° NE visible
02 Jul 4.1 22:33:49 47° SW 22:34:44 57° W 22:39:18 10° NNW visible
03 Jul 5.0 21:27:40 20° ESE 21:29:33 26° ENE 21:33:23 10° NNE visible
03 Jul 5.4 23:05:48 24° WSW 23:06:28 25° W 23:10:15 10° NW visible
04 Jul 3.8 21:59:40 41° SE 22:01:00 58° ENE 22:05:34 10° N visible
04 Jul 6.4 23:37:48 10° W 23:38:21 11° W 23:39:20 10° W visible
05 Jul 5.8 20:54:37 10° E 20:56:08 12° ENE 20:57:40 10° NE visible
05 Jul 4.0 22:31:40 49° SSW 22:32:35 60° W 22:37:11 10° NNW visible
